Location: Marcé
(47.5801°N, 0.3280°W)
Time: 16:29:01
(UTC+01:00)

SR - Pass Details

Date: 01 December 2021
Orbit: 582 x 872 km, 66.7° (Epoch: 22 January)

Event Time Altitude Azimuth Distance (km) Brightness Sun altitude
Rises 08:18:42 0° 332° (NNW) 2,815 ? -2.3°
Reaches altitude 10° 08:21:18 10° 347° (NNW) 1,917 ? -1.9°
Maximum altitude 08:24:44 23° 41° (NE) 1,288 ? -1.4°
Drops below altitude 10° 08:28:15 10° 94° (E) 1,968 ? -0.9°
Sets 08:30:57 0° 109° (ESE) 2,910 ? -0.5°
